Location: *
(46.0770°N, 1.6444°E)
Time: 03:32:40
(UTC+00:00)

Cosmos 389 Rocket - Pass Details

Date: 16 September 2019
Orbit: 444 x 478 km, 81.1° (Epoch: 22 October)

Event Time Altitude Azimuth Distance (km) Brightness Sun altitude
Rises 18:58:31 0° 3° (N) 2,459 6.3 -10.2°
Reaches altitude 10° 19:01:05 10° 23° (NNE) 1,578 5.1 -10.6°
Maximum altitude 19:03:33 18° 69° (ENE) 1,157 4.0 -11.1°
Enters shadow 19:04:26 17° 89° (E) 1,219 4.0 -11.2°
